Regional Weather Roundup
Issued by NWS

Home | Current Version | Previous Version | Text Only | Print | Product List | Glossary On
Versions: 1 2 3 4 5 6 7 8 9 10 11 12 13 14 15 16 17 18 19 20 21 22 23 24 25 26 27 28 29 30 31 32 33 34
000
ASPQ40 PGUM 012112
RWRPQ
WEATHER ROUNDUP FOR THE MARIANAS AND MICRONESIA
NATIONAL WEATHER SERVICE TIYAN GU
700 AM CHST THU OCT 02 2014

GUZ001>004-012200-
MARIANA ISLANDS-

CITY           SKY/WX    TMP DP  RH WIND       PRES   REMARKS
GUAM AIRPORT   MOSUNNY   81  77  89 SE6       29.69R
ANDERSEN AFB   LGT RAIN  77  75  94 S10       29.69R
ROTA AIRPORT   CLOUDY    79  77  94 S9        29.66S
TINIAN AP      CLOUDY    81  79  94 S7        29.66
SAIPAN AP      LGT RAIN  81  79  94 S12       29.68R

$$

PMZ161-012200-
REPUBLIC OF PALAU-

CITY           SKY/WX    TMP DP  RH WIND       PRES   REMARKS
KOROR AP       NOT AVBL
KOROR WSO      CLOUDY    82  75  78 W6        29.72R

$$

PMZ171>174-012200-
FEDERATED STATES OF MICRONESIA-

CITY           SKY/WX    TMP DP  RH WIND       PRES   REMARKS
YAP AIRPORT    CLOUDY    82  77  83 SW12      29.67R HX  91
CHUUK AP       CLOUDY    81  77  89 VRB6      29.79R
POHNPEI AP     NOT AVBL
POHNPEI WSO    LGT RAIN  79  77  94 SW3       29.79R
KOSRAE AP      NOT AVBL

$$

PMZ181-012200-
REPUBLIC OF THE MARSHALL ISLANDS-

CITY           SKY/WX    TMP DP  RH WIND       PRES   REMARKS
KWAJALEIN AP   TSTM      77  75  94 S13       29.81R
MAJURO AP      NOT AVBL
MAJURO WSO     PTSUNNY   86  77  74 E7        29.78R HX  97

$$




USA.gov is the U.S. government's official web portal to all federal, state and local government web resources and services.